QPF
0.06 0.07 0.07 0.07 0.04 0.04 0.04 0.02 0.01 0.02 0.04 0.03 0.00 0.00 0.00 0.00 0.00 0.00 0.00 0.01 0.01 0.01 0.00 0.00 0.00 0.00 0.01 0.01 0.02 0.01 0.01 0.01 0.01 0.01 0.01 0.01 0.00 0.00 0.00 0.00 0.00 0.01 0.01
0.08 0.08 0.08 0.07 0.05 0.04 0.03 0.02 0.00 0.01 0.01 0.01 0.00 0.00 0.00 0.00 0.01 0.01 0.01 0.01 0.01 0.01 0.01 0.00 0.00 0.00 0.00 0.01 0.02 0.02 0.02 0.02 0.02 0.02 0.02 0.02 0.01 0.01 0.01 0.01 0.01 0.01 0.01
0.08 0.08 0.09 0.09 0.06 0.04 0.02 0.01 0.01 0.01 0.01 0.01 0.01 0.01 0.01 0.01 0.01 0.02 0.02 0.01 0.01 0.01 0.00 0.00 0.00 0.00 0.01 0.01 0.01 0.02 0.03 0.03 0.03 0.02 0.03 0.03 0.03 0.02 0.02 0.02 0.02 0.02 0.02
0.07 0.09 0.10 0.09 0.07 0.05 0.05 0.05 0.04 0.04 0.04 0.04 0.05 0.04 0.02 0.02 0.02 0.02 0.01 0.01 0.01 0.00 0.01 0.00 0.00 0.00 0.00 0.00 0.01 0.01 0.01 0.02 0.02 0.02 0.02 0.02 0.02 0.03 0.03 0.02 0.03 0.03 0.03
0.06 0.09 0.10 0.09 0.08 0.08 0.09 0.07 0.06 0.06 0.07 0.08 0.06 0.05 0.03 0.02 0.02 0.01 0.01 0.01 0.01 0.01 0.00 0.00 0.00 0.00 0.00 0.00 0.00 0.00 0.01 0.01 0.01 0.01 0.01 0.01 0.02 0.02 0.02 0.02 0.02 0.02 0.03
0.06 0.08 0.08 0.10 0.10 0.10 0.10 0.08 0.08 0.07 0.07 0.06 0.05 0.03 0.03 0.02 0.02 0.01 0.01 0.01 0.01 0.01 0.01 0.00 0.00 0.00 0.00 0.00 0.00 0.00 0.00 0.00 0.00 0.00 0.00 0.01 0.01 0.01 0.01 0.01 0.02 0.02 0.02
0.06 0.08 0.09 0.09 0.09 0.10 0.10 0.10 0.10 0.09 0.09 0.07 0.06 0.05 0.04 0.02 0.01 0.01 0.01 0.01 0.01 0.01 0.00 0.00 0.00 0.00 0.00 0.00 0.00 0.00 0.00 0.00 0.00 0.00 0.00 0.00 0.00 0.00 0.00 0.01 0.01 0.01 0.01
0.06 0.07 0.08 0.09 0.10 0.11 0.11 0.11 0.11 0.12 0.11 0.10 0.09 0.08 0.06 0.03 0.01 0.01 0.01 0.00 0.00 0.00 0.00 0.00 0.00 0.00 0.00 0.00 0.00 0.00 0.00 0.00 0.00 0.00 0.00 0.00 0.00 0.00 0.00 0.00 0.00 0.01 0.01
0.05 0.05 0.06 0.08 0.10 0.11 0.12 0.14 0.17 0.17 0.15 0.12 0.09 0.07 0.05 0.03 0.01 0.00 0.00 0.00 0.00 0.00 0.00 0.00 0.00 0.00 0.00 0.00 0.00 0.00 0.00 0.00 0.00 0.00 0.00 0.00 0.00 0.00 0.00 0.00 0.00 0.00 0.01
0.06 0.05 0.05 0.06 0.08 0.11 0.12 0.13 0.14 0.14 0.11 0.08 0.05 0.03 0.02 0.01 0.01 0.01 0.00 0.00 0.00 0.00 0.00 0.00 0.00 0.00 0.00 0.00 0.00 0.00 0.00 0.00 0.00 0.00 0.00 0.00 0.00 0.00 0.00 0.00 0.00 0.00 0.00
0.03 0.02 0.03 0.04 0.05 0.07 0.08 0.08 0.07 0.06 0.04 0.02 0.01 0.01 0.01 0.01 0.01 0.01 0.00 0.00 0.00 0.00 0.00 0.00 0.00 0.00 0.00 0.00 0.00 0.00 0.00 0.00 0.00 0.00 0.00 0.00 0.00 0.00 0.00 0.00 0.00 0.00 0.00
0.02 0.01 0.01 0.02 0.02 0.02 0.02 0.02 0.02 0.01 0.01 0.01 0.01 0.01 0.01 0.01 0.01 0.01 0.00 0.00 0.00 0.00 0.00 0.00 0.00 0.00 0.00 0.00 0.00 0.00 0.00 0.00 0.00 0.00 0.00 0.00 0.00 0.00 0.00 0.00 0.00 0.00 0.01
0.01 0.01 0.01 0.01 0.01 0.01 0.01 0.01 0.01 0.01 0.01 0.01 0.01 0.01 0.01 0.00 0.00 0.00 0.00 0.00 0.00 0.00 0.00 0.00 0.00 0.00 0.00 0.00 0.00 0.00 0.00 0.00 0.00 0.00 0.00 0.00 0.00 0.00 0.00 0.00 0.00 0.00 0.01
0.01 0.01 0.01 0.00 0.00 0.00 0.00 0.00 0.00 0.00 0.00 0.01 0.01 0.00 0.00 0.00 0.00 0.00 0.00 0.00 0.00 0.00 0.00 0.00 0.00 0.00 0.00 0.00 0.00 0.00 0.00 0.00 0.00 0.00 0.00 0.00 0.00 0.00 0.00 0.00 0.00 0.01 0.01
0.00 0.00 0.00 0.00 0.00 0.00 0.00 0.00 0.00 0.00 0.00 0.00 0.00 0.00 0.00 0.00 0.00 0.00 0.00 0.00 0.00 0.00 0.00 0.00 0.00 0.00 0.00 0.00 0.00 0.00 0.00 0.00 0.00 0.00 0.00 0.00 0.00 0.00 0.01 0.01 0.01 0.01 0.01
0.00 0.00 0.00 0.00 0.00 0.00 0.00 0.00 0.00 0.00 0.00 0.00 0.00 0.00 0.00 0.00 0.00 0.00 0.00 0.00 0.00 0.00 0.00 0.00 0.00 0.00 0.00 0.00 0.00 0.00 0.00 0.00 0.00 0.00 0.01 0.01 0.01 0.01 0.01 0.01 0.01 0.01 0.01
0.00 0.00 0.00 0.00 0.00 0.00 0.00 0.00 0.00 0.00 0.00 0.00 0.00 0.00 0.00 0.00 0.00 0.00 0.00 0.00 0.00 0.00 0.00 0.00 0.00 0.00 0.00 0.00 0.01 0.01 0.01 0.01 0.01 0.01 0.01 0.01 0.01 0.01 0.01 0.01 0.01 0.01 0.01
0.00 0.00 0.00 0.00 0.00 0.00 0.00 0.00 0.00 0.00 0.00 0.00 0.00 0.00 0.00 0.00 0.00 0.00 0.00 0.00 0.00 0.01 0.01 0.01 0.01 0.00 0.01 0.01 0.02 0.02 0.01 0.01 0.01 0.01 0.00 0.00 0.00 0.00 0.00 0.00 0.00 0.00 0.00
0.00 0.00 0.00 0.00 0.00 0.00 0.00 0.00 0.00 0.00 0.00 0.00 0.00 0.00 0.00 0.00 0.00 0.01 0.01 0.01 0.01 0.01 0.01 0.02 0.02 0.01 0.01 0.01 0.03 0.02 0.02 0.03 0.01 0.00 0.00 0.00 0.00 0.01 0.00 0.00 0.00 0.00 0.00
0.01 0.01 0.00 0.00 0.00 0.00 0.00 0.00 0.00 0.00 0.00 0.00 0.00 0.00 0.00 0.01 0.01 0.01 0.01 0.01 0.01 0.02 0.02 0.03 0.02 0.02 0.02 0.02 0.04 0.04 0.03 0.02 0.02 0.01 0.01 0.01 0.01 0.01 0.01 0.01 0.00 0.00 0.00
0.01 0.00 0.00 0.00 0.00 0.00 0.00 0.00 0.00 0.00 0.00 0.00 0.00 0.01 0.01 0.01 0.00 0.00 0.00 0.01 0.02 0.02 0.02 0.03 0.03 0.02 0.02 0.04 0.05 0.04 0.03 0.02 0.02 0.02 0.02 0.02 0.03 0.03 0.03 0.03 0.03 0.02 0.01
0.00 0.00 0.00 0.00 0.00 0.00 0.00 0.00 0.00 0.00 0.00 0.01 0.01 0.01 0.01 0.01 0.00 0.01 0.01 0.01 0.01 0.02 0.03 0.04 0.04 0.04 0.04 0.05 0.06 0.05 0.04 0.04 0.02 0.02 0.04 0.02 0.03 0.03 0.04 0.05 0.04 0.02 0.01
0.01 0.01 0.00 0.00 0.00 0.00 0.00 0.00 0.00 0.00 0.00 0.01 0.01 0.01 0.01 0.01 0.01 0.02 0.01 0.01 0.01 0.01 0.03 0.05 0.05 0.06 0.06 0.06 0.06 0.04 0.04 0.04 0.04 0.03 0.05 0.04 0.04 0.05 0.04 0.03 0.02 0.01 0.00
0.01 0.01 0.01 0.01 0.01 0.00 0.00 0.00 0.00 0.00 0.01 0.01 0.01 0.01 0.01 0.02 0.02 0.00 0.00 0.01 0.01 0.02 0.03 0.05 0.06 0.06 0.05 0.04 0.04 0.04 0.04 0.04 0.03 0.04 0.07 0.05 0.04 0.04 0.03 0.05 0.03 0.01 0.00
0.01 0.01 0.01 0.01 0.01 0.01 0.00 0.00 0.00 0.00 0.00 0.00 0.01 0.01 0.01 0.02 0.01 0.00 0.00 0.01 0.02 0.03 0.02 0.02 0.02 0.02 0.02 0.02 0.03 0.03 0.04 0.05 0.04 0.03 0.05 0.04 0.02 0.02 0.02 0.04 0.05 0.03 0.02
0.01 0.01 0.01 0.01 0.01 0.02 0.00 0.00 0.00 0.00 0.00 0.00 0.00 0.01 0.01 0.01 0.00 0.00 0.00 0.01 0.02 0.02 0.02 0.02 0.04 0.05 0.06 0.05 0.04 0.05 0.06 0.06 0.06 0.05 0.03 0.03 0.02 0.02 0.02 0.02 0.04 0.05 0.06
MSLP
1016.01 1016.33 1016.58 1016.77 1016.94 1017.10 1017.27 1017.43 1017.58 1017.71 1017.79 1017.84 1017.86 1017.89 1017.94 1018.07 1018.27 1018.56 1018.91 1019.29 1019.66 1019.99 1020.25 1020.43 1020.52 1020.55 1020.53 1020.50 1020.47 1020.45 1020.45 1020.47 1020.51 1020.56 1020.60 1020.66 1020.72 1020.78 1020.84 1020.90 1020.97 1021.03 1021.10
1015.53 1015.86 1016.12 1016.35 1016.56 1016.77 1017.00 1017.23 1017.47 1017.69 1017.88 1018.04 1018.16 1018.28 1018.40 1018.55 1018.75 1019.00 1019.30 1019.63 1019.95 1020.25 1020.50 1020.68 1020.79 1020.84 1020.83 1020.78 1020.72 1020.65 1020.59 1020.54 1020.51 1020.50 1020.50 1020.52 1020.55 1020.58 1020.61 1020.65 1020.68 1020.71 1020.75
1015.20 1015.51 1015.79 1016.05 1016.30 1016.57 1016.86 1017.17 1017.49 1017.80 1018.10 1018.35 1018.57 1018.75 1018.91 1019.07 1019.24 1019.44 1019.67 1019.93 1020.19 1020.45 1020.68 1020.87 1021.00 1021.07 1021.08 1021.04 1020.97 1020.87 1020.77 1020.67 1020.58 1020.52 1020.48 1020.46 1020.46 1020.46 1020.47 1020.47 1020.47 1020.46 1020.46
1015.04 1015.34 1015.63 1015.92 1016.22 1016.53 1016.88 1017.24 1017.63 1018.01 1018.37 1018.70 1018.98 1019.21 1019.40 1019.55 1019.68 1019.81 1019.96 1020.13 1020.32 1020.53 1020.73 1020.92 1021.07 1021.17 1021.22 1021.21 1021.14 1021.04 1020.92 1020.79 1020.67 1020.58 1020.51 1020.47 1020.45 1020.43 1020.41 1020.38 1020.34 1020.29 1020.25
1015.08 1015.38 1015.68 1015.99 1016.32 1016.67 1017.04 1017.43 1017.84 1018.26 1018.66 1019.02 1019.33 1019.58 1019.77 1019.90 1019.99 1020.05 1020.12 1020.21 1020.32 1020.47 1020.64 1020.82 1020.99 1021.12 1021.20 1021.23 1021.19 1021.11 1020.99 1020.86 1020.75 1020.65 1020.58 1020.53 1020.50 1020.47 1020.43 1020.37 1020.29 1020.20 1020.11
1015.32 1015.63 1015.95 1016.28 1016.63 1016.98 1017.35 1017.73 1018.13 1018.53 1018.91 1019.27 1019.59 1019.84 1020.02 1020.12 1020.17 1020.18 1020.17 1020.17 1020.21 1020.30 1020.42 1020.58 1020.75 1020.91 1021.03 1021.09 1021.10 1021.05 1020.97 1020.87 1020.77 1020.69 1020.64 1020.60 1020.58 1020.55 1020.50 1020.41 1020.30 1020.17 1020.03
1015.75 1016.08 1016.43 1016.78 1017.13 1017.47 1017.80 1018.13 1018.47 1018.81 1019.15 1019.48 1019.77 1020.00 1020.17 1020.25 1020.27 1020.23 1020.16 1020.09 1020.06 1020.07 1020.15 1020.27 1020.43 1020.59 1020.73 1020.83 1020.88 1020.88 1020.85 1020.79 1020.74 1020.69 1020.67 1020.66 1020.65 1020.62 1020.57 1020.47 1020.33 1020.16 1019.97
1016.35 1016.72 1017.09 1017.46 1017.79 1018.10 1018.37 1018.63 1018.88 1019.14 1019.40 1019.67 1019.92 1020.13 1020.28 1020.36 1020.35 1020.28 1020.16 1020.04 1019.94 1019.88 1019.89 1019.96 1020.08 1020.23 1020.37 1020.50 1020.59 1020.63 1020.65 1020.65 1020.64 1020.64 1020.65 1020.66 1020.67 1020.66 1020.61 1020.50 1020.34 1020.14 1019.92
1017.07 1017.48 1017.89 1018.26 1018.58 1018.84 1019.04 1019.20 1019.35 1019.51 1019.69 1019.90 1020.10 1020.29 1020.44 1020.51 1020.50 1020.42 1020.27 1020.09 1019.92 1019.79 1019.72 1019.72 1019.79 1019.90 1020.03 1020.16 1020.27 1020.35 1020.41 1020.45 1020.48 1020.52 1020.56 1020.60 1020.63 1020.62 1020.57 1020.46 1020.29 1020.07 1019.82
1017.85 1018.31 1018.73 1019.10 1019.40 1019.60 1019.73 1019.81 1019.86 1019.93 1020.04 1020.18 1020.36 1020.53 1020.68 1020.76 1020.76 1020.67 1020.50 1020.28 1020.05 1019.85 1019.70 1019.61 1019.61 1019.66 1019.75 1019.86 1019.97 1020.07 1020.15 1020.21 1020.27 1020.33 1020.39 1020.44 1020.48 1020.47 1020.42 1020.31 1020.13 1019.91 1019.65
1018.61 1019.09 1019.52 1019.89 1020.15 1020.31 1020.37 1020.38 1020.36 1020.36 1020.41 1020.51 1020.66 1020.84 1020.99 1021.09 1021.11 1021.02 1020.84 1020.59 1020.31 1020.04 1019.80 1019.64 1019.55 1019.53 1019.57 1019.64 1019.73 1019.81 1019.89 1019.96 1020.03 1020.09 1020.14 1020.19 1020.21 1020.20 1020.14 1020.03 1019.86 1019.64 1019.39
1019.26 1019.74 1020.16 1020.51 1020.75 1020.87 1020.89 1020.85 1020.79 1020.75 1020.76 1020.85 1020.99 1021.17 1021.34 1021.46 1021.49 1021.41 1021.23 1020.96 1020.64 1020.31 1020.01 1019.77 1019.60 1019.51 1019.48 1019.50 1019.54 1019.60 1019.65 1019.70 1019.74 1019.78 1019.81 1019.83 1019.83 1019.80 1019.73 1019.61 1019.45 1019.25 1019.02
1019.74 1020.19 1020.59 1020.91 1021.13 1021.23 1021.24 1021.18 1021.10 1021.05 1021.06 1021.14 1021.29 1021.47 1021.66 1021.80 1021.85 1021.78 1021.60 1021.33 1020.98 1020.61 1020.26 1019.95 1019.72 1019.56 1019.46 1019.42 1019.41 1019.41 1019.42 1019.43 1019.43 1019.42 1019.40 1019.37 1019.33 1019.27 1019.17 1019.05 1018.90 1018.72 1018.51
1020.02 1020.43 1020.79 1021.09 1021.28 1021.38 1021.40 1021.35 1021.29 1021.25 1021.27 1021.36 1021.51 1021.70 1021.90 1022.04 1022.11 1022.06 1021.89 1021.62 1021.27 1020.89 1020.51 1020.16 1019.87 1019.65 1019.49 1019.38 1019.31 1019.25 1019.20 1019.14 1019.08 1019.00 1018.92 1018.83 1018.73 1018.62 1018.49 1018.35 1018.20 1018.04 1017.87
1020.13 1020.49 1020.82 1021.09 1021.28 1021.40 1021.43 1021.42 1021.39 1021.37 1021.41 1021.50 1021.65 1021.84 1022.04 1022.18 1022.25 1022.22 1022.07 1021.82 1021.49 1021.11 1020.72 1020.36 1020.03 1019.77 1019.55 1019.38 1019.24 1019.11 1018.98 1018.84 1018.70 1018.55 1018.38 1018.22 1018.04 1017.87 1017.70 1017.54 1017.37 1017.22 1017.08
1020.16 1020.47 1020.77 1021.03 1021.23 1021.37 1021.45 1021.47 1021.48 1021.48 1021.53 1021.62 1021.76 1021.93 1022.10 1022.23 1022.30 1022.27 1022.15 1021.92 1021.62 1021.27 1020.90 1020.53 1020.19 1019.89 1019.62 1019.39 1019.17 1018.97 1018.76 1018.54 1018.31 1018.07 1017.82 1017.56 1017.31 1017.06 1016.83 1016.62 1016.44 1016.28 1016.16
1020.22 1020.49 1020.77 1021.04 1021.27 1021.45 1021.56 1021.63 1021.66 1021.68 1021.71 1021.78 1021.88 1022.00 1022.13 1022.23 1022.29 1022.27 1022.16 1021.97 1021.71 1021.39 1021.05 1020.69 1020.34 1020.01 1019.69 1019.39 1019.10 1018.81 1018.52 1018.22 1017.90 1017.57 1017.24 1016.89 1016.55 1016.23 1015.92 1015.65 1015.42 1015.25 1015.13
1020.41 1020.67 1020.95 1021.24 1021.51 1021.72 1021.87 1021.96 1022.00 1022.01 1022.01 1022.03 1022.06 1022.12 1022.19 1022.24 1022.27 1022.24 1022.15 1022.00 1021.77 1021.49 1021.17 1020.82 1020.46 1020.09 1019.72 1019.36 1019.00 1018.63 1018.26 1017.88 1017.48 1017.08 1016.66 1016.23 1015.81 1015.40 1015.02 1014.68 1014.39 1014.18 1014.04
1020.78 1021.05 1021.36 1021.68 1021.97 1022.22 1022.39 1022.48 1022.51 1022.48 1022.44 1022.38 1022.33 1022.31 1022.30 1022.30 1022.28 1022.24 1022.15 1022.01 1021.81 1021.56 1021.25 1020.90 1020.52 1020.11 1019.69 1019.26 1018.83 1018.40 1017.96 1017.51 1017.05 1016.58 1016.10 1015.61 1015.11 1014.63 1014.17 1013.75 1013.40 1013.13 1012.96
1021.33 1021.62 1021.96 1022.31 1022.63 1022.89 1023.07 1023.15 1023.14 1023.06 1022.94 1022.80 1022.66 1022.54 1022.45 1022.38 1022.32 1022.24 1022.15 1022.01 1021.82 1021.57 1021.25 1020.89 1020.47 1020.02 1019.55 1019.06 1018.57 1018.07 1017.58 1017.09 1016.59 1016.09 1015.57 1015.04 1014.49 1013.94 1013.41 1012.92 1012.50 1012.17 1011.95
1021.97 1022.30 1022.67 1023.04 1023.37 1023.63 1023.78 1023.83 1023.78 1023.63 1023.43 1023.20 1022.98 1022.77 1022.60 1022.46 1022.34 1022.23 1022.10 1021.95 1021.74 1021.47 1021.14 1020.74 1020.28 1019.78 1019.26 1018.72 1018.18 1017.65 1017.13 1016.62 1016.12 1015.60 1015.08 1014.53 1013.95 1013.37 1012.79 1012.24 1011.76 1011.36 1011.08
1022.61 1022.96 1023.33 1023.71 1024.03 1024.26 1024.39 1024.39 1024.29 1024.08 1023.81 1023.50 1023.20 1022.92 1022.68 1022.47 1022.30 1022.14 1021.98 1021.78 1021.54 1021.24 1020.86 1020.42 1019.92 1019.37 1018.80 1018.23 1017.67 1017.12 1016.60 1016.11 1015.62 1015.13 1014.63 1014.09 1013.52 1012.92 1012.31 1011.72 1011.18 1010.73 1010.39
1023.11 1023.46 1023.83 1024.18 1024.48 1024.68 1024.76 1024.72 1024.56 1024.31 1023.98 1023.63 1023.27 1022.94 1022.64 1022.38 1022.16 1021.95 1021.74 1021.49 1021.20 1020.85 1020.43 1019.94 1019.39 1018.81 1018.22 1017.63 1017.06 1016.53 1016.04 1015.58 1015.14 1014.70 1014.23 1013.73 1013.18 1012.59 1011.98 1011.36 1010.78 1010.28 1009.88
1023.41 1023.73 1024.07 1024.38 1024.63 1024.79 1024.83 1024.75 1024.56 1024.28 1023.93 1023.56 1023.17 1022.81 1022.48 1022.18 1021.91 1021.65 1021.38 1021.08 1020.73 1020.32 1019.85 1019.32 1018.75 1018.15 1017.55 1016.97 1016.43 1015.94 1015.49 1015.09 1014.70 1014.32 1013.91 1013.45 1012.94 1012.37 1011.77 1011.14 1010.53 1009.98 1009.53
1023.47 1023.76 1024.05 1024.31 1024.52 1024.63 1024.63 1024.53 1024.33 1024.05 1023.70 1023.33 1022.95 1022.57 1022.22 1021.89 1021.58 1021.26 1020.94 1020.58 1020.17 1019.71 1019.21 1018.65 1018.07 1017.47 1016.89 1016.35 1015.85 1015.41 1015.02 1014.68 1014.35 1014.03 1013.67 1013.26 1012.78 1012.24 1011.64 1011.01 1010.38 1009.80 1009.29
1023.38 1023.62 1023.86 1024.07 1024.23 1024.30 1024.29 1024.18 1023.99 1023.72 1023.40 1023.04 1022.67 1022.30 1021.94 1021.58 1021.22 1020.85 1020.47 1020.05 1019.60 1019.10 1018.57 1018.01 1017.44 1016.87 1016.33 1015.84 1015.40 1015.01 1014.68 1014.39 1014.12 1013.84 1013.51 1013.13 1012.68 1012.16 1011.57 1010.93 1010.29 1009.67 1009.12
Thickness
5742 5740 5735 5731 5728 5725 5722 5720 5719 5719 5717 5715 5715 5715 5713 5711 5707 5705 5701 5699 5697 5695 5693 5691 5689 5688 5687 5686 5685 5684 5683 5682 5681 5680 5679 5678 5677 5676 5675 5674 5674 5673 5673
5741 5738 5734 5729 5725 5722 5720 5717 5715 5715 5712 5710 5709 5708 5705 5703 5700 5696 5694 5692 5690 5688 5687 5685 5683 5682 5681 5679 5679 5678 5677 5676 5675 5674 5673 5671 5670 5669 5668 5667 5666 5666 5666
5740 5735 5730 5724 5721 5718 5715 5712 5709 5707 5705 5703 5700 5698 5695 5693 5691 5689 5685 5684 5683 5681 5679 5677 5676 5674 5673 5672 5671 5670 5669 5668 5667 5666 5665 5664 5662 5661 5660 5659 5659 5658 5658
5739 5734 5727 5721 5716 5712 5707 5703 5700 5697 5694 5692 5689 5687 5686 5684 5682 5681 5679 5677 5675 5674 5671 5669 5668 5666 5664 5663 5662 5661 5660 5659 5658 5657 5655 5654 5652 5651 5650 5650 5649 5649 5649
5735 5729 5723 5717 5712 5707 5702 5697 5691 5688 5683 5680 5679 5678 5676 5674 5673 5672 5671 5669 5668 5665 5664 5662 5660 5658 5656 5654 5653 5651 5650 5649 5647 5646 5644 5642 5641 5640 5639 5638 5638 5638 5638
5728 5723 5717 5711 5706 5701 5695 5689 5682 5678 5673 5670 5669 5667 5667 5666 5665 5664 5664 5663 5661 5659 5657 5654 5652 5651 5648 5645 5643 5641 5639 5637 5635 5633 5631 5629 5627 5626 5625 5624 5624 5624 5624
5721 5717 5712 5706 5701 5694 5688 5682 5676 5669 5664 5661 5658 5656 5658 5660 5659 5658 5656 5655 5653 5652 5649 5646 5644 5642 5639 5636 5633 5631 5628 5625 5622 5619 5616 5614 5612 5610 5609 5608 5608 5608 5608
5713 5709 5704 5699 5693 5687 5680 5674 5669 5662 5657 5653 5649 5646 5646 5648 5650 5651 5649 5647 5645 5642 5640 5638 5636 5633 5630 5627 5624 5620 5617 5613 5609 5605 5601 5598 5595 5593 5591 5591 5591 5591 5591
5704 5700 5695 5690 5685 5679 5672 5666 5661 5656 5650 5645 5643 5639 5636 5635 5635 5638 5639 5637 5635 5632 5630 5627 5625 5622 5619 5616 5612 5608 5604 5600 5596 5591 5586 5582 5578 5575 5573 5572 5572 5572 5573
5693 5688 5684 5680 5675 5669 5664 5658 5653 5649 5645 5639 5634 5631 5628 5625 5620 5621 5625 5626 5625 5622 5619 5617 5614 5610 5606 5602 5599 5595 5591 5587 5582 5576 5570 5565 5561 5558 5556 5554 5553 5553 5554
5680 5676 5672 5668 5663 5658 5653 5648 5643 5639 5635 5630 5626 5623 5619 5616 5612 5607 5607 5610 5610 5610 5608 5605 5602 5598 5593 5589 5585 5581 5576 5570 5564 5558 5553 5548 5543 5540 5537 5535 5534 5535 5535
5667 5663 5659 5655 5651 5646 5641 5637 5632 5628 5624 5620 5616 5613 5608 5604 5601 5598 5595 5595 5594 5594 5593 5590 5586 5583 5579 5575 5569 5563 5557 5551 5545 5539 5534 5529 5525 5522 5519 5517 5516 5516 5517
5655 5650 5646 5642 5638 5633 5629 5625 5620 5616 5612 5608 5604 5600 5596 5592 5589 5586 5583 5581 5579 5578 5576 5573 5570 5567 5561 5555 5548 5542 5536 5530 5525 5520 5515 5511 5507 5504 5502 5500 5498 5498 5498
5641 5637 5633 5629 5625 5621 5617 5612 5608 5604 5600 5595 5592 5587 5583 5579 5576 5572 5569 5565 5563 5562 5559 5556 5553 5548 5542 5535 5528 5523 5517 5511 5506 5502 5497 5494 5490 5488 5485 5483 5481 5480 5480
5629 5624 5620 5616 5612 5608 5604 5599 5595 5591 5586 5582 5578 5574 5569 5565 5561 5558 5553 5549 5545 5544 5544 5538 5534 5530 5524 5518 5511 5505 5500 5495 5490 5486 5482 5479 5476 5473 5470 5468 5465 5464 5464
5616 5612 5607 5602 5598 5594 5590 5585 5582 5577 5573 5568 5564 5559 5555 5550 5545 5540 5536 5532 5528 5526 5526 5523 5516 5511 5505 5499 5494 5488 5484 5480 5477 5473 5469 5466 5463 5460 5458 5456 5454 5453 5453
5602 5597 5593 5588 5584 5579 5575 5570 5567 5563 5558 5553 5548 5544 5538 5534 5529 5523 5519 5515 5512 5508 5506 5504 5498 5493 5487 5482 5478 5473 5469 5467 5465 5462 5459 5457 5454 5452 5450 5448 5447 5445 5445
5586 5582 5578 5573 5569 5564 5559 5555 5550 5546 5541 5536 5531 5526 5522 5518 5512 5507 5503 5499 5494 5490 5487 5485 5481 5476 5471 5467 5464 5461 5458 5456 5454 5453 5451 5450 5448 5446 5445 5444 5442 5441 5440
5570 5566 5562 5557 5552 5548 5542 5537 5532 5528 5524 5519 5515 5510 5507 5502 5498 5494 5488 5484 5480 5477 5471 5468 5466 5463 5459 5456 5453 5450 5448 5446 5445 5445 5444 5444 5442 5441 5440 5440 5439 5439 5438
5554 5550 5545 5540 5535 5529 5522 5516 5512 5509 5506 5503 5499 5496 5493 5489 5485 5480 5475 5471 5467 5462 5458 5455 5453 5452 5449 5447 5443 5441 5440 5439 5437 5437 5436 5435 5435 5435 5435 5436 5436 5436 5436
5538 5533 5528 5523 5517 5510 5501 5495 5491 5491 5488 5487 5485 5483 5480 5477 5473 5468 5464 5459 5455 5451 5447 5444 5443 5442 5441 5439 5436 5434 5432 5432 5431 5430 5430 5429 5429 5429 5430 5431 5432 5433 5433
5519 5515 5510 5505 5498 5491 5482 5477 5473 5472 5472 5472 5471 5469 5467 5466 5462 5458 5453 5449 5445 5442 5440 5437 5435 5435 5434 5432 5430 5428 5426 5425 5426 5425 5423 5423 5423 5424 5425 5427 5428 5428 5429
5502 5497 5492 5486 5479 5471 5466 5462 5459 5457 5458 5459 5458 5456 5455 5454 5451 5447 5444 5442 5440 5437 5436 5433 5432 5432 5431 5429 5427 5425 5422 5419 5418 5419 5418 5419 5420 5420 5421 5423 5423 5424 5424
5485 5481 5476 5471 5464 5456 5451 5448 5445 5446 5448 5448 5447 5445 5444 5442 5439 5435 5434 5435 5435 5435 5434 5434 5433 5431 5429 5427 5424 5420 5418 5417 5417 5416 5415 5415 5417 5416 5418 5419 5419 5419 5420
5471 5466 5462 5457 5451 5444 5438 5434 5432 5433 5436 5435 5435 5435 5434 5433 5429 5427 5428 5430 5433 5434 5435 5434 5433 5431 5430 5427 5424 5419 5417 5415 5415 5415 5413 5410 5411 5411 5413 5415 5415 5415 5416
5457 5453 5448 5444 5439 5434 5427 5422 5419 5421 5423 5423 5424 5426 5426 5425 5423 5423 5424 5427 5430 5433 5434 5434 5433 5432 5431 5428 5425 5420 5417 5414 5412 5412 5411 5405 5405 5404 5407 5409 5410 5411 5413